Time,TemperatureF,DewpointF,PressureIn,WindDirection,WindDirectionDegrees,WindSpeedMPH,WindSpeedGustMPH,Humidity,HourlyPrecipIn,Conditions,Clouds,dailyrainin,SolarRadiationWatts/m^2,SoftwareType,DateUTC
2013-03-20 00:02:00,60.0,45.0,-100.00,NNE,12,4.0,7.0,57,0.00,,,0.00,0.000000,,2013-03-20 07:02:00,
2013-03-20 00:11:00,60.0,45.0,-100.00,NNE,12,4.0,7.0,57,0.00,,,0.00,0.000000,,2013-03-20 07:11:00,
2013-03-20 00:32:00,60.0,43.0,-100.00,ENE,59,4.0,17.0,53,0.00,,,0.00,0.000000,,2013-03-20 07:32:00,
2013-03-20 00:42:00,60.0,43.0,-100.00,ENE,59,4.0,17.0,53,0.00,,,0.00,0.000000,,2013-03-20 07:42:00,
2013-03-20 00:52:00,60.0,43.0,-100.00,ENE,59,4.0,17.0,53,0.00,,,0.00,0.000000,,2013-03-20 07:52:00,
2013-03-20 01:02:00,60.0,43.0,-100.00,ENE,59,4.0,17.0,53,0.00,,,0.00,0.000000,,2013-03-20 08:02:00,
2013-03-20 01:11:00,60.0,43.0,-100.00,ENE,59,4.0,17.0,53,0.00,,,0.00,0.000000,,2013-03-20 08:11:00,
2013-03-20 01:42:00,56.0,43.0,-100.00,South,179,3.0,5.0,62,0.00,,,0.00,0.000000,,2013-03-20 08:42:00,
2013-03-20 01:52:00,56.0,43.0,-100.00,South,179,3.0,5.0,62,0.00,,,0.00,0.000000,,2013-03-20 08:52:00,
2013-03-20 02:02:00,56.0,43.0,-100.00,South,179,3.0,5.0,62,0.00,,,0.00,0.000000,,2013-03-20 09:02:00,
2013-03-20 02:11:00,56.0,43.0,-100.00,South,179,3.0,5.0,62,0.00,,,0.00,0.000000,,2013-03-20 09:11:00,
2013-03-20 02:43:00,52.0,43.0,-100.00,NE,56,4.0,6.0,72,0.00,,,0.00,0.000000,,2013-03-20 09:43:00,
2013-03-20 02:53:00,52.0,43.0,-100.00,NE,56,4.0,6.0,72,0.00,,,0.00,0.000000,,2013-03-20 09:53:00,
2013-03-20 03:03:00,52.0,43.0,-100.00,NE,56,4.0,6.0,72,0.00,,,0.00,0.000000,,2013-03-20 10:03:00,
2013-03-20 03:12:00,52.0,43.0,-100.00,NE,56,4.0,6.0,72,0.00,,,0.00,0.000000,,2013-03-20 10:12:00,
2013-03-20 03:33:00,52.0,44.0,-100.00,ENE,58,2.0,7.0,73,0.00,,,0.00,0.000000,,2013-03-20 10:33:00,
2013-03-20 03:43:00,52.0,44.0,-100.00,ENE,58,2.0,7.0,73,0.00,,,0.00,0.000000,,2013-03-20 10:43:00,
2013-03-20 03:53:00,52.0,44.0,-100.00,ENE,58,2.0,7.0,73,0.00,,,0.00,0.000000,,2013-03-20 10:53:00,
2013-03-20 04:02:00,52.0,44.0,-100.00,ENE,58,2.0,7.0,73,0.00,,,0.00,0.000000,,2013-03-20 11:02:00,
2013-03-20 04:11:00,52.0,44.0,-100.00,ENE,58,2.0,7.0,73,0.00,,,0.00,0.000000,,2013-03-20 11:11:00,
2013-03-20 04:32:00,52.0,45.0,-100.00,NE,40,2.0,5.0,78,0.00,,,0.00,0.000000,,2013-03-20 11:32:00,
2013-03-20 04:42:00,52.0,45.0,-100.00,NE,40,2.0,5.0,78,0.00,,,0.00,0.000000,,2013-03-20 11:42:00,
2013-03-20 04:52:00,52.0,45.0,-100.00,NE,40,2.0,5.0,78,0.00,,,0.00,0.000000,,2013-03-20 11:52:00,
2013-03-20 05:02:00,52.0,45.0,-100.00,NE,40,2.0,5.0,78,0.00,,,0.00,0.000000,,2013-03-20 12:02:00,
2013-03-20 05:11:00,52.0,45.0,-100.00,NE,40,2.0,5.0,78,0.00,,,0.00,0.000000,,2013-03-20 12:11:00,
2013-03-20 05:33:00,50.0,45.0,-100.00,ENE,74,1.0,4.0,84,0.00,,,-99.99,0.000000,,2013-03-20 12:33:00,
2013-03-20 05:42:00,50.0,45.0,-100.00,ENE,74,1.0,4.0,84,0.00,,,-99.99,0.000000,,2013-03-20 12:42:00,
2013-03-20 05:52:00,50.0,45.0,-100.00,ENE,74,1.0,4.0,84,0.00,,,-99.99,0.000000,,2013-03-20 12:52:00,
2013-03-20 06:02:00,50.0,45.0,-100.00,ENE,74,1.0,4.0,84,0.00,,,-99.99,0.000000,,2013-03-20 13:02:00,
2013-03-20 06:12:00,50.0,45.0,-100.00,ENE,74,1.0,4.0,84,0.00,,,-99.99,0.000000,,2013-03-20 13:12:00,
2013-03-20 06:43:00,48.0,45.0,-100.00,NE,54,3.0,7.0,89,0.00,,,0.00,0.000000,,2013-03-20 13:43:00,
2013-03-20 06:53:00,48.0,45.0,-100.00,NE,54,3.0,7.0,89,0.00,,,0.00,0.000000,,2013-03-20 13:53:00,
2013-03-20 07:02:00,48.0,45.0,-100.00,NE,54,3.0,7.0,89,0.00,,,0.00,0.000000,,2013-03-20 14:02:00,
2013-03-20 07:11:00,48.0,45.0,-100.00,NE,54,3.0,7.0,89,0.00,,,0.00,0.000000,,2013-03-20 14:11:00,
2013-03-20 07:43:00,48.0,46.0,-100.00,NE,54,3.0,5.0,94,0.00,,,0.00,1.000000,,2013-03-20 14:43:00,
2013-03-20 07:52:00,48.0,46.0,-100.00,NE,54,3.0,5.0,94,0.00,,,0.00,1.000000,,2013-03-20 14:52:00,
2013-03-20 08:02:00,48.0,46.0,-100.00,NE,54,3.0,5.0,94,0.00,,,0.00,1.000000,,2013-03-20 15:02:00,
2013-03-20 08:12:00,48.0,46.0,-100.00,NE,54,3.0,5.0,94,0.00,,,0.00,1.000000,,2013-03-20 15:12:00,
2013-03-20 08:43:00,51.0,47.0,-100.00,North,11,3.0,4.0,87,0.00,,,0.00,47.000000,,2013-03-20 15:43:00,
2013-03-20 08:53:00,51.0,47.0,-100.00,North,11,3.0,4.0,87,0.00,,,0.00,47.000000,,2013-03-20 15:53:00,
2013-03-20 09:02:00,51.0,47.0,-100.00,North,11,3.0,4.0,87,0.00,,,0.00,47.000000,,2013-03-20 16:02:00,
2013-03-20 09:12:00,51.0,47.0,-100.00,North,11,3.0,4.0,87,0.00,,,0.00,47.000000,,2013-03-20 16:12:00,
2013-03-20 09:33:00,59.0,48.0,-100.00,SW,229,1.0,4.0,67,0.00,,,0.00,168.000000,,2013-03-20 16:33:00,
2013-03-20 09:43:00,59.0,48.0,-100.00,SW,229,1.0,4.0,67,0.00,,,0.00,168.000000,,2013-03-20 16:43:00,
2013-03-20 09:53:00,59.0,48.0,-100.00,SW,229,1.0,4.0,67,0.00,,,0.00,168.000000,,2013-03-20 16:53:00,
2013-03-20 10:03:00,59.0,48.0,-100.00,SW,229,1.0,4.0,67,0.00,,,0.00,168.000000,,2013-03-20 17:03:00,
2013-03-20 10:11:00,59.0,48.0,-100.00,SW,229,1.0,4.0,67,0.00,,,0.00,168.000000,,2013-03-20 17:11:00,
2013-03-20 10:42:00,62.0,47.0,-100.00,WSW,255,5.0,10.0,59,0.00,,,0.00,431.000000,,2013-03-20 17:42:00,
2013-03-20 10:53:00,62.0,47.0,-100.00,WSW,255,5.0,10.0,59,0.00,,,0.00,431.000000,,2013-03-20 17:53:00,
2013-03-20 11:02:00,62.0,47.0,-100.00,WSW,255,5.0,10.0,59,0.00,,,0.00,431.000000,,2013-03-20 18:02:00,
2013-03-20 11:12:00,62.0,47.0,-100.00,WSW,255,5.0,10.0,59,0.00,,,0.00,431.000000,,2013-03-20 18:12:00,
2013-03-20 11:34:00,64.0,48.0,-100.00,West,275,4.0,7.0,56,0.00,,,0.00,497.000000,,2013-03-20 18:34:00,
2013-03-20 11:43:00,64.0,48.0,-100.00,West,275,4.0,7.0,56,0.00,,,0.00,497.000000,,2013-03-20 18:43:00,
2013-03-20 11:52:00,64.0,48.0,-100.00,West,275,4.0,7.0,56,0.00,,,0.00,497.000000,,2013-03-20 18:52:00,
2013-03-20 12:02:00,64.0,48.0,-100.00,West,275,4.0,7.0,56,0.00,,,0.00,497.000000,,2013-03-20 19:02:00,
2013-03-20 12:12:00,64.0,48.0,-100.00,West,275,4.0,7.0,56,0.00,,,0.00,497.000000,,2013-03-20 19:12:00,
2013-03-20 12:42:00,65.0,48.0,-100.00,WSW,256,6.0,10.0,54,0.00,,,0.00,589.000000,,2013-03-20 19:42:00,
2013-03-20 12:53:00,65.0,48.0,-100.00,WSW,256,6.0,10.0,54,0.00,,,0.00,589.000000,,2013-03-20 19:53:00,
2013-03-20 13:02:00,65.0,48.0,-100.00,WSW,256,6.0,10.0,54,0.00,,,0.00,589.000000,,2013-03-20 20:02:00,
2013-03-20 13:12:00,65.0,48.0,-100.00,WSW,256,6.0,10.0,54,0.00,,,0.00,589.000000,,2013-03-20 20:12:00,
2013-03-20 13:32:00,66.0,50.0,-100.00,West,277,5.0,10.0,56,0.00,,,0.00,662.000000,,2013-03-20 20:32:00,
2013-03-20 13:42:00,66.0,50.0,-100.00,West,277,5.0,10.0,56,0.00,,,0.00,662.000000,,2013-03-20 20:42:00,
2013-03-20 13:53:00,66.0,50.0,-100.00,West,277,5.0,10.0,56,0.00,,,0.00,662.000000,,2013-03-20 20:53:00,
2013-03-20 14:02:00,66.0,50.0,-100.00,West,277,5.0,10.0,56,0.00,,,0.00,662.000000,,2013-03-20 21:02:00,
2013-03-20 14:12:00,66.0,50.0,-100.00,West,277,5.0,10.0,56,0.00,,,0.00,662.000000,,2013-03-20 21:12:00,
2013-03-20 14:33:00,66.0,49.0,-100.00,NW,309,3.0,9.0,54,0.00,,,0.00,476.000000,,2013-03-20 21:33:00,
2013-03-20 14:42:00,66.0,49.0,-100.00,NW,309,3.0,9.0,54,0.00,,,0.00,476.000000,,2013-03-20 21:42:00,
2013-03-20 14:52:00,66.0,49.0,-100.00,NW,309,3.0,9.0,54,0.00,,,0.00,476.000000,,2013-03-20 21:52:00,
2013-03-20 15:02:00,66.0,49.0,-100.00,NW,309,3.0,9.0,54,0.00,,,0.00,476.000000,,2013-03-20 22:02:00,
2013-03-20 15:12:00,66.0,49.0,-100.00,NW,309,3.0,9.0,54,0.00,,,0.00,476.000000,,2013-03-20 22:12:00,
2013-03-20 15:33:00,64.0,50.0,-100.00,NNW,330,2.0,7.0,60,0.00,,,0.00,221.000000,,2013-03-20 22:33:00,
2013-03-20 15:43:00,64.0,50.0,-100.00,NNW,330,2.0,7.0,60,0.00,,,0.00,221.000000,,2013-03-20 22:43:00,
2013-03-20 15:52:00,64.0,50.0,-100.00,NNW,330,2.0,7.0,60,0.00,,,0.00,221.000000,,2013-03-20 22:52:00,
2013-03-20 16:02:00,64.0,50.0,-100.00,NNW,330,2.0,7.0,60,0.00,,,0.00,221.000000,,2013-03-20 23:02:00,
2013-03-20 16:12:00,64.0,50.0,-100.00,NNW,330,2.0,7.0,60,0.00,,,0.00,221.000000,,2013-03-20 23:12:00,
2013-03-20 16:33:00,64.0,49.0,-100.00,South,184,2.0,6.0,58,0.00,,,0.00,210.000000,,2013-03-20 23:33:00,
2013-03-20 16:43:00,64.0,49.0,-100.00,South,184,2.0,6.0,58,0.00,,,0.00,210.000000,,2013-03-20 23:43:00,
2013-03-20 16:52:00,64.0,49.0,-100.00,South,184,2.0,6.0,58,0.00,,,0.00,210.000000,,2013-03-20 23:52:00,
2013-03-20 17:02:00,64.0,49.0,-100.00,South,184,2.0,6.0,58,0.00,,,0.00,210.000000,,2013-03-21 00:02:00,
2013-03-20 17:12:00,64.0,49.0,-100.00,South,184,2.0,6.0,58,0.00,,,0.00,210.000000,,2013-03-21 00:12:00,
2013-03-20 17:33:00,63.0,49.0,-100.00,NNE,22,3.0,6.0,61,0.00,,,0.00,177.000000,,2013-03-21 00:33:00,
2013-03-20 17:42:00,63.0,49.0,-100.00,NNE,22,3.0,6.0,61,0.00,,,0.00,177.000000,,2013-03-21 00:42:00,
2013-03-20 17:52:00,63.0,49.0,-100.00,NNE,22,3.0,6.0,61,0.00,,,0.00,177.000000,,2013-03-21 00:52:00,
2013-03-20 18:02:00,63.0,49.0,-100.00,NNE,22,3.0,6.0,61,0.00,,,0.00,177.000000,,2013-03-21 01:02:00,
2013-03-20 18:11:00,63.0,49.0,-100.00,NNE,22,3.0,6.0,61,0.00,,,0.00,177.000000,,2013-03-21 01:11:00,
2013-03-20 18:42:00,62.0,50.0,-100.00,WSW,242,3.0,6.0,65,0.00,,,0.00,88.000000,,2013-03-21 01:42:00,
2013-03-20 18:52:00,62.0,50.0,-100.00,WSW,242,3.0,6.0,65,0.00,,,0.00,88.000000,,2013-03-21 01:52:00,
2013-03-20 19:02:00,62.0,50.0,-100.00,WSW,242,3.0,6.0,65,0.00,,,0.00,88.000000,,2013-03-21 02:02:00,
2013-03-20 19:12:00,62.0,50.0,-100.00,WSW,242,3.0,6.0,65,0.00,,,0.00,88.000000,,2013-03-21 02:12:00,
2013-03-20 20:02:00,59.0,51.0,-100.00,NE,48,2.0,4.0,74,0.00,,,0.00,24.000000,,2013-03-21 03:02:00,
2013-03-20 20:12:00,59.0,51.0,-100.00,NE,48,2.0,4.0,74,0.00,,,0.00,24.000000,,2013-03-21 03:12:00,
2013-03-20 20:33:00,54.0,50.0,-100.00,ENE,61,4.0,6.0,87,0.00,,,0.00,0.000000,,2013-03-21 03:33:00,
2013-03-20 20:43:00,54.0,50.0,-100.00,ENE,61,4.0,6.0,87,0.00,,,0.00,0.000000,,2013-03-21 03:43:00,
2013-03-20 20:53:00,54.0,50.0,-100.00,ENE,61,4.0,6.0,87,0.00,,,0.00,0.000000,,2013-03-21 03:53:00,
2013-03-20 21:02:00,54.0,50.0,-100.00,ENE,61,4.0,6.0,87,0.00,,,0.00,0.000000,,2013-03-21 04:02:00,
2013-03-20 21:12:00,54.0,50.0,-100.00,ENE,61,4.0,6.0,87,0.00,,,0.00,0.000000,,2013-03-21 04:12:00,
2013-03-20 21:43:00,53.0,50.0,-100.00,ENE,59,4.0,6.0,90,0.00,,,0.00,0.000000,,2013-03-21 04:43:00,
2013-03-20 21:53:00,53.0,50.0,-100.00,ENE,59,4.0,6.0,90,0.00,,,0.00,0.000000,,2013-03-21 04:53:00,
2013-03-20 22:02:00,53.0,50.0,-100.00,ENE,59,4.0,6.0,90,0.00,,,0.00,0.000000,,2013-03-21 05:02:00,
2013-03-20 22:12:00,53.0,50.0,-100.00,ENE,59,4.0,6.0,90,0.00,,,0.00,0.000000,,2013-03-21 05:12:00,
2013-03-20 22:33:00,51.0,50.0,-100.00,ENE,74,3.0,7.0,98,0.00,,,0.00,0.000000,,2013-03-21 05:33:00,
2013-03-20 22:44:00,51.0,50.0,-100.00,ENE,74,3.0,7.0,98,0.00,,,0.00,0.000000,,2013-03-21 05:44:00,
2013-03-20 22:52:00,51.0,50.0,-100.00,ENE,74,3.0,7.0,98,0.00,,,0.00,0.000000,,2013-03-21 05:52:00,
2013-03-20 23:02:00,51.0,50.0,-100.00,ENE,74,3.0,7.0,98,0.00,,,0.00,0.000000,,2013-03-21 06:02:00,
2013-03-20 23:12:00,51.0,50.0,-100.00,ENE,74,3.0,7.0,98,0.00,,,0.00,0.000000,,2013-03-21 06:12:00,
2013-03-20 23:32:00,51.0,51.0,-100.00,ENE,70,4.0,7.0,99,0.00,,,0.00,0.000000,,2013-03-21 06:32:00,
2013-03-20 23:42:00,51.0,51.0,-100.00,ENE,70,4.0,7.0,99,0.00,,,0.00,0.000000,,2013-03-21 06:42:00,
2013-03-20 23:52:00,51.0,51.0,-100.00,ENE,70,4.0,7.0,99,0.00,,,0.00,0.000000,,2013-03-21 06:52:00,